Weather History for Bolton Field, OH

Change the Weather History Date:

Monday, December 5, 2011

  Actual Average Record
Temperature  
Mean Temperature 45 °F -  
Max Temperature 51 °F 43 °F 71 °F (2001)
Min Temperature 37 °F 31 °F 12 °F (2008)
Degree Days  
Heating Degree Days 20    
Moisture  
Dew Point 45 °F    
Average Humidity 99    
Maximum Humidity 100    
Minimum Humidity 95    
Precipitation  
Precipitation 0.00 in - - ()
Sea Level Pressure  
Sea Level Pressure 30.12 in    
Wind  
Wind Speed 4 mph (NE)    
Max Wind Speed 18 mph    
Max Gust Speed 25 mph    
Visibility 5 miles    
Events Rain    
Averages and records for this station are not official NWS values.
T = Trace of Precipitation, MM = Missing Value Source: NWS Daily Summary

Daily Weather History Graph

Daily Weather History Graph

Search for Another Location

Airport:

Trip Planner

Search our weather history database for the weather conditions in past years. The results will help you decide how hot, cold, wet, or windy it might be!

Date:

Astronomy

Dec. 05, 2011 Rise Set
Actual Time 7:38 AM EST 5:07 PM EST
Civil Twilight 7:08 AM EST 5:37 PM EST
Nautical Twilight 6:34 AM EST 6:11 PM EST
Astronomical Twilight 6:01 AM EST 6:44 PM EST
Moon 2:04 PM EST (12/5) 2:59 AM EST (12/5)
Length of Visible Light 10h 29m
Length of Day
9h 28m
Waxing Gibbous, 79% of the Moon is Illuminated
Dec 5
Waxing Gibbous
Dec 10
Full
Dec 17
Last Quarter
Dec 24
New
Jan 1
First Quarter

Hourly Weather History & Observations

Time (EST) Temp. Windchill Dew Point Humidity Pressure Visibility Wind Dir Wind Speed Gust Speed Precip Events Conditions
12:15 AM 46.2 °F - 46.2 °F 100% 30.18 in 0.8 mi Calm Calm - N/A   Overcast
12:35 AM 46.4 °F - 46.4 °F 100% 30.18 in 0.8 mi Calm Calm - N/A Rain Light Rain
12:55 AM 46.8 °F - 46.8 °F 100% 30.18 in 2.0 mi Calm Calm - N/A   Drizzle
1:15 AM 47.3 °F - 47.3 °F 100% 30.18 in 4.0 mi Calm Calm - N/A Rain Light Rain
1:35 AM 47.1 °F - 47.1 °F 100% 30.17 in 4.0 mi Calm Calm - N/A Rain Light Rain
2:15 AM 46.9 °F - 46.6 °F 99% 30.17 in 5.0 mi ESE 3.5 mph - N/A Rain Rain
2:35 AM 46.9 °F - 46.4 °F 98% 30.17 in 5.0 mi ESE 3.5 mph - N/A Rain Rain
2:55 AM 46.9 °F - 46.0 °F 97% 30.16 in 7.0 mi SE 3.5 mph - N/A Rain Light Rain
3:15 AM 46.9 °F - 46.2 °F 97% 30.16 in 7.0 mi ESE 3.5 mph - N/A Rain Light Rain
3:35 AM 46.6 °F - 46.0 °F 98% 30.16 in 5.0 mi ESE 3.5 mph - N/A Rain Rain
3:55 AM 46.6 °F - 46.4 °F 99% 30.16 in 5.0 mi ESE 3.5 mph - N/A Rain Rain
4:15 AM 46.8 °F - 46.4 °F 99% 30.15 in 5.0 mi Calm Calm - N/A Rain Rain
4:35 AM 46.8 °F - 46.6 °F 99% 30.15 in 4.0 mi Calm Calm - N/A Rain Rain
4:55 AM 46.8 °F - 46.8 °F 100% 30.15 in 3.0 mi Calm Calm - N/A Rain Rain
5:15 AM 46.8 °F - 46.8 °F 100% 30.15 in 3.0 mi Calm Calm - N/A Rain Rain
5:35 AM 47.3 °F - 47.3 °F 100% 30.15 in 4.0 mi SE 3.5 mph - N/A Rain Rain
6:15 AM 47.3 °F - 47.3 °F 100% 30.15 in 5.0 mi Calm Calm - N/A   Light Drizzle
6:35 AM 47.3 °F - 47.3 °F 100% 30.15 in 5.0 mi ESE 3.5 mph - N/A Rain Rain
6:55 AM 47.3 °F - 46.9 °F 99% 30.15 in 5.0 mi ESE 3.5 mph - N/A Rain Light Rain
7:15 AM 47.3 °F - 46.8 °F 98% 30.16 in 5.0 mi Calm Calm - N/A Rain Light Rain
7:50 AM 46.4 °F 44.3 °F 46.4 °F 100% 30.16 in 5.0 mi SE 4.6 mph - N/A Rain Rain
8:50 AM 48.2 °F - 48.2 °F 100% 30.16 in 3.0 mi SSE 5.8 mph - N/A Rain Rain
9:55 AM 48.2 °F - 48.2 °F 100% 30.16 in 3.0 mi Calm Calm - N/A Rain Rain
10:26 AM 48.2 °F - 48.2 °F 100% 30.16 in 2.0 mi Calm Calm - N/A Rain Heavy Rain
10:58 AM 48.2 °F - 48.2 °F 100% 30.15 in 3.0 mi Calm Calm - N/A Rain Rain
1:50 PM 50.0 °F - 50.0 °F 100% 30.04 in 3.0 mi ESE 8.1 mph - N/A Rain Rain
3:50 PM 51.8 °F - 51.8 °F 100% 30.02 in 4.0 mi SSE 8.1 mph - N/A Rain Rain
4:50 PM 51.8 °F - 51.8 °F 100% 30.04 in 4.0 mi SW 3.5 mph - N/A Rain Rain
6:50 PM 44.6 °F 39.7 °F 44.6 °F 100% 30.04 in 7.0 mi NNW 9.2 mph - N/A Rain Rain
8:15 PM 42.8 °F 37.0 °F 41.9 °F 97% 30.03 in 7.0 mi North 10.4 mph - N/A Rain Heavy Rain
8:35 PM 42.3 °F 36.8 °F 41.7 °F 98% 30.03 in 7.0 mi North 9.2 mph 16.1 mph N/A Rain Rain
8:55 PM 42.1 °F 35.7 °F 41.4 °F 97% 30.04 in 7.0 mi NNW 11.5 mph 19.6 mph N/A Rain Light Rain
9:15 PM 41.5 °F 34.6 °F 41.0 °F 98% 30.04 in 5.0 mi North 12.7 mph 19.6 mph N/A Rain Rain
9:35 PM 41.2 °F 34.5 °F 40.6 °F 98% 30.04 in 7.0 mi North 11.5 mph - N/A   Heavy Drizzle
9:55 PM 41.0 °F 34.3 °F 40.5 °F 98% 30.05 in 7.0 mi North 11.5 mph 18.4 mph N/A   Drizzle
10:15 PM 41.0 °F 33.9 °F 40.5 °F 98% 30.06 in 7.0 mi NNW 12.7 mph 17.3 mph N/A Rain Rain
10:35 PM 40.5 °F 32.1 °F 39.7 °F 97% 30.07 in 5.0 mi NNW 16.1 mph 24.2 mph N/A Rain Light Rain
10:55 PM 40.1 °F 31.3 °F 39.0 °F 96% 30.07 in 5.0 mi NNW 17.3 mph 25.3 mph N/A Rain Rain
11:15 PM 39.7 °F 32.3 °F 38.7 °F 96% 30.08 in 7.0 mi NNW 12.7 mph 21.9 mph N/A Rain Light Rain
11:35 PM 39.2 °F 30.8 °F 37.9 °F 95% 30.07 in 10.0 mi North 15.0 mph 19.6 mph N/A   Drizzle
11:55 PM 37.8 °F 28.0 °F 36.5 °F 95% 30.06 in 10.0 mi North 18.4 mph 21.9 mph N/A   Light Drizzle